sat.trackr.live / text

‹ back to catalog

STARLINK-36240

NORAD 67076 · 2025-298B

PAYLOAD ACTIVE UNKNOWN

§ Identity

Operator
Country
US
Launch date
2025-12-14
Launch site
AFWTR
Launch vehicle
Mass (kg)
RCS (m²)

Purposes: comms

External: N2YO · Heavens-Above · Gunter

§ Orbital elements

Epoch: 2026-05-25T02:37:25.286016Z

Period
96.11 min
Inclination
70.0011°
Eccentricity
0.0003629
Mean motion
14.98334321 rev/d
Perigee alt
569.5 km
Apogee alt
574.6 km
Semi-major
6,950.2 km
B*
2.3853e-4
RAAN
181.8008°
Arg perigee
266.3026°
Mean anomaly
93.7718°
Rev number
2,466

§ Raw data

STARLINK-362401 67076U 25298B   26145.10932044  .00002755  00000+0  23853-3 0  99952 67076  70.0011 181.8008 0003629 266.3026  93.7718 14.98334321 24669

JSON: /api/v1/satellites/67076 · /tle

For live sub-satellite position, see the globe view (requires WebGL).

§ Visibility from observer

Set your observer location to see the next 7 days of passes ≥ 10°. The values pass through the URL so the page stays shareable.

No JS? Fill the form by hand. The geolocation button needs JavaScript.